Flag for U.S.A. Weather past 2 weeks in Raleigh, North Carolina, U.S.A.

Now
94 °F

Scattered clouds.


Feels Like: 99 °F
Forecast: 72 / 93 °F
Wind: 6 mph from North

Location: Raleigh-Durham International Airport

Current Time: Sep 2, 2014 at 2:59:36 PM

Latest Report: Sep 2, 2014 at 1:51 PM


Visibility: 10 mi

Pressure: 30.01 "Hg

Humidity: 44%

Dew point: 69 °F

Location of RaleighLocation

Historic Weather in Raleigh — Graph

°F

Raleigh temperature yesterday

Maximum temperature yesterday: 92 °F (at 1:51 PM)
Minimum temperature yesterday: 73 °F (at 5:51 AM)
Average temperature yesterday: 82 °F

Past Weeks' High & Low Weather Summary

 TemperatureHumidityPressure
High93 °F (Sep 2, 12:51 PM)94% (Aug 18, 9:03 PM)30.22 "Hg (Aug 18, 9:03 PM)
Low59 °F (Aug 27, 4:51 AM)39% (Aug 27, 4:51 PM)29.77 "Hg (Aug 19, 3:51 AM)
Average77 °F75%30.02 "Hg
* Reported Aug 18 12:51 PM — Sep 2 12:51 PM, Raleigh, Weather by CustomWeather, © 2014

Note: Actual official high and low records may vary slightly from our data, if they occured in-between our weather recording intervals... More about our weather records

Advertising

Raleigh weather history for previous 24 hours

 ConditionsComfort  
Time TempWeatherWind HumidityBarometerVisibility
12:51 PM
Sep 2
93 °FScattered clouds.5 mph52%30.02 "Hg10 mi
11:51 AM90 °FPassing clouds.10 mph56%30.05 "Hg10 mi
10:51 AM87 °FPassing clouds.3 mph61%30.06 "Hg10 mi
9:51 AM83 °FPassing clouds.3 mph68%30.06 "Hg10 mi
8:51 AM79 °FPassing clouds.7 mph74%30.06 "Hg10 mi
7:51 AM74 °FPassing clouds.6 mph88%30.06 "Hg10 mi
6:51 AM72 °FPassing clouds.3 mph87%30.06 "Hg10 mi
5:51 AM72 °FPassing clouds.5 mph87%30.04 "Hg10 mi
4:51 AM74 °FPassing clouds.3 mph85%30.03 "Hg10 mi
3:51 AM74 °FPassing clouds.6 mph88%30.03 "Hg10 mi
2:51 AM76 °FPassing clouds.8 mph85%30.03 "Hg10 mi
1:51 AM78 °FPassing clouds.10 mph82%30.04 "Hg10 mi
12:51 AM80 °FPassing clouds.8 mph74%30.04 "Hg10 mi
11:51 PM
Sep 1
78 °FPassing clouds.6 mph76%30.04 "Hg10 mi
10:51 PM80 °FPassing clouds.No wind71%30.04 "Hg10 mi
9:51 PM77 °FPassing clouds.No wind82%30.04 "Hg10 mi
8:51 PM80 °FPassing clouds.No wind76%30.03 "Hg10 mi
7:51 PM82 °FPartly sunny.No wind67%30.02 "Hg10 mi
6:51 PM88 °FPartly sunny.3 mph55%30.01 "Hg10 mi
5:51 PM87 °FPartly sunny.No wind59%30.01 "Hg10 mi
4:51 PM89 °FPartly sunny.6 mph53%30.02 "Hg10 mi
3:51 PM90 °FBroken clouds.7 mph47%30.03 "Hg10 mi
2:51 PM91 °FBroken clouds.9 mph52%30.04 "Hg10 mi
Weather by CustomWeather, © 2014

See weather overviewHow to use our weather pages